Simultaneous Nadir Overpasses (SNOs) Predictions

Prediction of SNOs between GOES-17 and TERRA Satellite Orbit:

Table of predicted SNOs for the next 14.0 days since TLE Epoch: 10/22/2022
Index Date Time (GOES-17) GOES-17 Lat,Lon TERRA Lat,Lon Distance(km) Time Diff (sec)
1 10/22/2022 19:12:50 -0.07,-137.34 -0.69,-134.44 329.85 80
2 10/23/2022 07:33:21 0.07,-137.32 -0.40,-139.41 238.01 80
3 10/25/2022 07:15:04 0.07,-137.31 0.44,-135.64 190.21 80
4 10/25/2022 19:35:25 -0.07,-137.32 0.65,-140.58 371.51 80
5 10/27/2022 19:22:27 -0.07,-137.29 -0.15,-136.80 55.62 80
6 10/29/2022 19:06:49 -0.06,-137.26 -0.95,-133.02 481.64 80
7 10/30/2022 07:27:20 0.06,-137.24 -0.13,-138.00 86.95 80
8 11/01/2022 07:09:02 0.05,-137.20 0.69,-134.22 338.47 80
9 11/01/2022 19:29:23 -0.05,-137.19 0.39,-139.16 224.00 80
10 11/03/2022 19:16:25 -0.05,-137.15 -0.44,-135.38 201.22 80
11 11/04/2022 07:36:55 0.04,-137.13 -0.63,-140.36 367.30 80
